User: anonymous   Login
Location: Limerick
(52.6800°N, 8.6400°W)
Time: 11:34:47
(UTC+01:00)
Language:

Sapphire - Orbit

View from above orbital plane
View from above orbital plane
View from above satellite
View from above satellite

Ground track
Ground track

The orbit data is extracted from the following two-line orbital elements,

1 26932U 01043D   17174.92991987 -.00000038 +00000-0 +17432-4 0  9997
2 26932 067.0570 076.1445 0009278 270.7456 089.2582 14.30251642821264
Epoch (UTC): 23 June 2017 22:19:05
Eccentricity: 0.0009278
inclination: 67.0570°
perigee height: 784 km
apogee height: 797 km
right ascension of ascending node: 76.1445°
argument of perigee: 270.7456°
revolutions per day: 14.30251642
mean anomaly at epoch: 89.2582°
orbit number at epoch: 82126

The dashed part of the orbit path shows where the satellite is in the earth's shadow,  

DLR